Flag for U.S.A. Weather past 2 weeks in Oceanside, California, U.S.A.

Now
73 °F

Overcast.


Feels Like: 76 °F
Forecast: 65 / 76 °F
Wind: 6 mph from Southeast

Location: Oceanside Weather Reporting Station

Current Time: Sep 1, 2015 at 9:54:23 AM

Latest Report: Sep 1, 2015 at 8:52 AM


Visibility: 10 mi

Pressure: 29.92 "Hg

Humidity: 59%

Dew point: 58 °F

Location of OceansideLocation

Historic Weather in Oceanside — Graph

°F

Oceanside temperature yesterday

Maximum temperature yesterday: 78 °F (at 10:52 AM)
Minimum temperature yesterday: 69 °F (at 3:52 AM)
Average temperature yesterday: 73 °F

Past Weeks' High & Low Weather Summary

 TemperatureHumidityPressure
High89 °F (Aug 28, 9:52 AM)91% (Aug 27, 5:52 AM)29.98 "Hg (Aug 27, 5:52 AM)
Low64 °F (Aug 18, 11:52 PM)28% (Aug 28, 9:52 AM)29.80 "Hg (Aug 28, 4:52 PM)
Average74 °F73%29.89 "Hg
* Reported Aug 17 7:52 AM — Sep 1 7:52 AM, Oceanside, Weather by CustomWeather, © 2015

Note: Actual official high and low records may vary slightly from our data, if they occured in-between our weather recording intervals... More about our weather records

Advertising

Oceanside weather history for previous 24 hours

 ConditionsComfort  
Time TempWeatherWind HumidityBarometerVisibility
7:52 AM
Tue, Sep 1
71 °FOvercast.3 mph66%29.92 "Hg10 mi
6:52 AM70 °FOvercast.5 mph68%29.91 "Hg10 mi
5:52 AM70 °FOvercast.No wind68%29.90 "Hg10 mi
4:52 AM70 °FOvercast.7 mph68%29.90 "Hg10 mi
3:52 AM70 °FOvercast.9 mph71%29.89 "Hg10 mi
2:52 AM70 °FOvercast.6 mph73%29.89 "Hg10 mi
1:52 AM70 °FOvercast.6 mph73%29.90 "Hg10 mi
12:52 AM71 °FOvercast.6 mph73%29.91 "Hg9 mi
11:52 PM
Mon, Aug 31
71 °FOvercast.6 mph73%29.91 "Hg9 mi
10:52 PM71 °FOvercast.5 mph76%29.90 "Hg9 mi
9:52 PM71 °FOvercast.5 mph76%29.89 "Hg9 mi
7:52 PM71 °FOvercast.6 mph76%29.86 "Hg9 mi
6:52 PM72 °FSunny.5 mph73%29.85 "Hg9 mi
5:52 PM74 °FSunny.8 mph69%29.84 "Hg10 mi
4:52 PM76 °FSunny.10 mph64%29.85 "Hg9 mi
3:52 PM77 °FSunny.8 mph62%29.85 "Hg10 mi
2:52 PM77 °FSunny.10 mph62%29.87 "Hg9 mi
1:52 PM77 °FSunny.10 mph60%29.89 "Hg10 mi
12:52 PM78 °FSunny.12 mph58%29.89 "Hg10 mi
11:52 AM77 °FSunny.9 mph60%29.90 "Hg9 mi
10:52 AM78 °FPassing clouds.10 mph58%29.91 "Hg9 mi
9:52 AM74 °FPartly sunny.7 mph64%29.92 "Hg9 mi
Weather by CustomWeather, © 2015

See weather overviewHow to use our weather pages